| time (UTC) | temp C | wind direction | speed KPH | gust KPH | rain 1hr cm | rain 24hr cm | rain mn cm | humidity % | barometer mb |
| 20260504081559 | 8 | 217 | 0.0 | 0.0 | 0.00 | 0.10 | 0.00 | 1 | 1022.8 |
| 20260504050012 | 11 | 217 | 0.0 | 0.0 | 0.00 | 0.15 | 0.00 | 1 | 1023.7 |
| 20260504044551 | 11 | 217 | 0.0 | 0.0 | 0.00 | 0.15 | 0.00 | 1 | 1023.8 |
| 20260504043052 | 11 | 217 | 0.0 | 0.0 | 0.00 | 0.18 | 0.00 | 1 | 1023.8 |
| 20260504041523 | 11 | 217 | 0.0 | 0.0 | 0.00 | 0.18 | 0.00 | 1 | 1023.8 |
| 20260504040020 | 11 | 217 | 0.0 | 0.0 | 0.00 | 0.18 | 0.00 | 1 | 1023.8 |
| 20260504034600 | 11 | 217 | 0.0 | 0.0 | 0.00 | 0.18 | 0.00 | 1 | 1023.8 |
| 20260504033058 | 12 | 217 | 0.0 | 0.0 | 0.00 | 0.18 | 0.18 | 4 | 1023.8 |
| 20260504031532 | 12 | 217 | 0.0 | 0.0 | 0.00 | 0.18 | 0.18 | 12 | 1023.6 |
| 20260504030028 | 12 | 217 | 0.0 | 0.0 | 0.00 | 0.18 | 0.18 | 23 | 1023.4 |
| 20260504024506 | 13 | 217 | 0.0 | 0.0 | 0.00 | 0.18 | 0.18 | 36 | 1023.5 |
| 20260504023002 | 13 | 217 | 0.0 | 0.0 | 0.00 | 0.20 | 0.18 | 42 | 1023.3 |
| 20260504021539 | 14 | 217 | 0.0 | 0.0 | 0.00 | 0.20 | 0.18 | 46 | 1023.3 |
| 20260504020035 | 15 | 217 | 0.0 | 0.0 | 0.00 | 0.20 | 0.18 | 52 | 1023.0 |
| 20260504014524 | 15 | 217 | 0.0 | 0.0 | 0.00 | 0.20 | 0.18 | 56 | 1023.0 |
| 20260504013012 | 16 | 217 | 0.0 | 0.0 | 0.00 | 0.23 | 0.18 | 59 | 1022.9 |
| 20260504011549 | 16 | 217 | 0.0 | 0.0 | 0.00 | 0.23 | 0.18 | 60 | 1022.7 |
| 20260504010051 | 17 | 217 | 0.0 | 0.0 | 0.00 | 0.23 | 0.18 | 58 | 1022.5 |
| 20260504004522 | 18 | 217 | 0.0 | 0.0 | 0.00 | 0.23 | 0.18 | 56 | 1022.2 |
| 20260504003018 | 19 | 217 | 0.0 | 0.0 | 0.00 | 0.28 | 0.18 | 53 | 1022.1 |
| 20260504001602 | 20 | 217 | 0.0 | 0.0 | 0.00 | 0.28 | 0.18 | 52 | 1021.9 |
| 20260504000055 | 21 | 217 | 0.0 | 0.0 | 0.00 | 0.28 | 0.18 | 50 | 1021.8 |
| 20260503234529 | 21 | 217 | 0.0 | 0.0 | 0.00 | 0.28 | 0.18 | 43 | 1021.8 |
| 20260503233025 | 22 | 217 | 0.0 | 0.0 | 0.00 | 0.30 | 0.18 | 41 | 1021.8 |
| 20260503231502 | 22 | 182 | 0.0 | 0.0 | 0.00 | 0.30 | 0.18 | 40 | 1021.9 |
| 20260503230058 | 22 | 190 | 0.0 | 0.0 | 0.00 | 0.30 | 0.18 | 37 | 1021.9 |
| 20260503224542 | 22 | 175 | 0.0 | 0.0 | 0.00 | 0.30 | 0.18 | 37 | 1021.9 |
| 20260503223033 | 22 | 208 | 0.0 | 1.6 | 0.00 | 0.36 | 0.18 | 35 | 1021.9 |
| 20260503221510 | 23 | 178 | 0.0 | 0.0 | 0.00 | 0.36 | 0.18 | 35 | 1022.0 |
| 20260503220007 | 23 | 206 | 0.0 | 0.0 | 0.00 | 0.36 | 0.18 | 35 | 1022.1 |
| 20260503214545 | 23 | 160 | 0.0 | 0.0 | 0.00 | 0.36 | 0.18 | 37 | 1022.1 |
| 20260503213040 | 23 | 188 | 0.0 | 0.0 | 0.00 | 0.41 | 0.18 | 37 | 1022.2 |
| 20260503211518 | 23 | 207 | 0.0 | 0.0 | 0.00 | 0.41 | 0.18 | 36 | 1022.3 |
| 20260503210036 | 24 | 157 | 0.0 | 0.0 | 0.00 | 0.41 | 0.18 | 36 | 1022.3 |
| 20260503204605 | 24 | 201 | 0.0 | 0.0 | 0.00 | 0.41 | 0.18 | 35 | 1022.5 |
| 20260503203058 | 24 | 215 | 0.0 | 0.0 | 0.00 | 0.46 | 0.18 | 34 | 1022.8 |
| 20260503201534 | 25 | 149 | 0.0 | 0.0 | 0.00 | 0.46 | 0.18 | 34 | 1023.1 |
| 20260503200025 | 24 | 183 | 0.0 | 0.0 | 0.00 | 0.46 | 0.18 | 36 | 1023.3 |
| 20260503194624 | 25 | 200 | 0.0 | 0.0 | 0.00 | 0.46 | 0.18 | 34 | 1023.7 |
| 20260503193054 | 24 | 191 | 0.0 | 0.0 | 0.00 | 0.56 | 0.18 | 36 | 1023.8 |
| 20260503191534 | 24 | 207 | 0.0 | 0.0 | 0.00 | 0.56 | 0.18 | 34 | 1024.0 |
| 20260503190037 | 23 | 138 | 0.0 | 0.0 | 0.00 | 0.56 | 0.18 | 37 | 1024.2 |
| 20260503184520 | 23 | 164 | 0.0 | 0.0 | 0.00 | 0.56 | 0.18 | 37 | 1024.3 |
| 20260503183010 | 23 | 141 | 0.0 | 0.0 | 0.00 | 0.66 | 0.18 | 37 | 1024.4 |
| 20260503181506 | 23 | 192 | 0.0 | 0.0 | 0.00 | 0.66 | 0.18 | 37 | 1024.3 |
| 20260503180109 | 22 | 288 | 0.0 | 0.0 | 0.00 | 0.66 | 0.18 | 36 | 1024.6 |
| 20260503180001 | 22 | 238 | 0.0 | 0.0 | 0.00 | 0.66 | 0.18 | 37 | 1024.6 |
| 20260503174555 | 22 | 200 | 0.0 | 0.0 | 0.00 | 0.66 | 0.18 | 40 | 1024.8 |
| 20260503173139 | 22 | 180 | 0.0 | 0.0 | 0.00 | 0.79 | 0.18 | 41 | 1025.0 |
| 20260503171548 | 22 | 178 | 0.0 | 0.0 | 0.00 | 0.79 | 0.18 | 39 | 1025.2 |